Flag for U.S.A. Weather past 2 weeks in Atlanta, Georgia, U.S.A.

Now
54 °F

Clear.


Feels Like: 54 °F
Forecast: 58 / 74 °F
Wind: No wind

Location: Fulton County Airport-Brown Field

Current Time: Apr 2, 2015 at 4:01:27 AM

Latest Report: Apr 2, 2015 at 2:53 AM


Visibility: 10 mi

Pressure: 30.09 "Hg

Humidity: 83%

Dew point: 49 °F

Location of AtlantaLocation

Historic Weather in Atlanta — Graph

°F

Atlanta temperature yesterday

Maximum temperature yesterday: 79 °F (at 4:53 PM)
Minimum temperature yesterday: 56 °F (at 6:53 AM)
Average temperature yesterday: 65 °F

Past Weeks' High & Low Weather Summary

 TemperatureHumidityPressure
High79 °F (Apr 1, 4:53 PM)96% (Mar 20, 3:53 AM)30.42 "Hg (Mar 20, 3:53 AM)
Low27 °F (Mar 29, 6:53 AM)18% (Mar 29, 1:53 PM)29.75 "Hg (Mar 27, 4:53 AM)
Average57 °F66%30.06 "Hg
* Reported Mar 18 2:53 AM — Apr 2 2:53 AM, Atlanta, Weather by CustomWeather, © 2015

Note: Actual official high and low records may vary slightly from our data, if they occured in-between our weather recording intervals... More about our weather records

Advertising

Atlanta weather history for previous 24 hours

 ConditionsComfort  
Time TempWeatherWind HumidityBarometerVisibility
2:53 AM
Thu, Apr 2
54 °FClear.No wind83%30.09 "Hg10 mi
1:53 AM53 °FClear.No wind86%30.08 "Hg10 mi
12:53 AM55 °FClear.No wind80%30.09 "Hg10 mi
11:53 PM
Wed, Apr 1
59 °FClear.6 mph72%30.10 "Hg10 mi
10:53 PM59 °FClear.No wind69%30.09 "Hg10 mi
9:53 PM62 °FClear.No wind65%30.08 "Hg10 mi
8:53 PM67 °FSunny.No wind51%30.05 "Hg10 mi
7:53 PM76 °FSunny.No wind32%30.02 "Hg10 mi
6:53 PM78 °FSunny.6 mph29%30.00 "Hg10 mi
5:53 PM79 °FSunny.6 mph28%30.00 "Hg10 mi
4:53 PM79 °FSunny.8 mph28%30.00 "Hg10 mi
3:53 PM78 °FSunny.N/A32%30.01 "Hg10 mi
2:53 PM77 °FSunny.12 mph35%30.02 "Hg10 mi
1:53 PM75 °FSunny.No wind39%30.03 "Hg10 mi
12:53 PM73 °FSunny.8 mph44%30.05 "Hg10 mi
11:53 AM71 °FSunny.7 mph51%30.06 "Hg10 mi
10:53 AM66 °FSunny.6 mph68%30.06 "Hg10 mi
9:53 AM61 °FSunny.3 mph81%30.04 "Hg10 mi
8:53 AM58 °FSunny.No wind87%30.03 "Hg10 mi
7:53 AM56 °FClear.No wind93%30.01 "Hg10 mi
6:53 AM56 °FPassing clouds.5 mph93%29.99 "Hg10 mi
5:53 AM57 °FPassing clouds.5 mph93%29.98 "Hg10 mi
4:53 AM57 °FLow clouds.7 mph93%29.95 "Hg10 mi
Weather by CustomWeather, © 2015

See weather overviewHow to use our weather pages